• In Belgien
  • Länderverzeichnis
  • Für 7 Tage
  • Wassertemperatur
  • Satellitenkarten
  • Wetterkarte
  • Widgets
  • user-avatar
    Anmelden

    Stündliche Wetter Batina

    Heute, 25 September, Montag

    Zeit Temperatur Niederschläge Wind Luftdruck Luftfeuchtigkeit
    00:00 +19°C° 0 mm 2 m/S 674 mmHg 69%
    01:00 +18°C° 0 mm 2 m/S 674 mmHg 70%
    02:00 +19°C° 0 mm 1 m/S 673 mmHg 72%
    03:00 +18°C° 0 mm 1 m/S 673 mmHg 74%
    04:00 +18°C° 0 mm 1 m/S 673 mmHg 73%
    05:00 +18°C° 0 mm 1 m/S 673 mmHg 73%
    06:00 +16°C° 0 mm 0 m/S 673 mmHg 73%
    07:00 +19°C° 0 mm 1 m/S 673 mmHg 63%
    08:00 +21°C° 0 mm 1 m/S 674 mmHg 54%
    09:00 +22°C° 0 mm 1 m/S 675 mmHg 45%
    10:00 +23°C° 0 mm 1 m/S 675 mmHg 39%
    11:00 +24°C° 0 mm 2 m/S 675 mmHg 34%
    12:00 +25°C° 0 mm 2 m/S 675 mmHg 28%
    13:00 +26°C° 0 mm 2 m/S 675 mmHg 26%
    14:00 +26°C° 0 mm 2 m/S 675 mmHg 25%
    15:00 +26°C° 0 mm 3 m/S 674 mmHg 23%
    16:00 +26°C° 0 mm 3 m/S 674 mmHg 24%
    17:00 +25°C° 0 mm 2 m/S 674 mmHg 25%
    18:00 +24°C° 0 mm 2 m/S 674 mmHg 26%
    19:00 +23°C° 0 mm 2 m/S 674 mmHg 28%
    20:00 +23°C° 0 mm 2 m/S 674 mmHg 31%
    21:00 +22°C° 0 mm 1 m/S 674 mmHg 34%
    22:00 +21°C° 0 mm 1 m/S 674 mmHg 36%
    23:00 +21°C° 0 mm 1 m/S 674 mmHg 38%

    Morgen, 26 September, Dienstag

    Zeit Temperatur Niederschläge Wind Luftdruck Luftfeuchtigkeit
    00:00 +20°C° 0 mm 1 m/S 673 mmHg 40%
    01:00 +19°C° 0 mm 1 m/S 673 mmHg 42%
    02:00 +19°C° 0 mm 1 m/S 672 mmHg 43%
    03:00 +19°C° 0 mm 1 m/S 672 mmHg 44%
    04:00 +19°C° 0 mm 1 m/S 672 mmHg 46%
    05:00 +19°C° 0 mm 1 m/S 672 mmHg 47%
    06:00 +18°C° 0 mm 1 m/S 673 mmHg 48%
    07:00 +20°C° 0 mm 1 m/S 673 mmHg 43%
    08:00 +21°C° 0 mm 2 m/S 674 mmHg 38%
    09:00 +22°C° 0 mm 3 m/S 675 mmHg 33%
    10:00 +24°C° 0 mm 3 m/S 675 mmHg 31%
    11:00 +25°C° 0 mm 3 m/S 675 mmHg 29%
    12:00 +26°C° 0 mm 3 m/S 674 mmHg 27%
    13:00 +26°C° 0 mm 3 m/S 674 mmHg 27%
    14:00 +26°C° 0 mm 3 m/S 674 mmHg 27%
    15:00 +27°C° 0 mm 3 m/S 674 mmHg 27%
    16:00 +26°C° 0 mm 3 m/S 673 mmHg 29%
    17:00 +25°C° 0 mm 3 m/S 673 mmHg 31%
    18:00 +24°C° 0 mm 2 m/S 673 mmHg 33%
    19:00 +23°C° 0 mm 2 m/S 673 mmHg 36%
    20:00 +23°C° 0 mm 2 m/S 674 mmHg 39%
    21:00 +22°C° 0 mm 1 m/S 674 mmHg 42%
    22:00 +21°C° 0 mm 1 m/S 674 mmHg 44%
    23:00 +21°C° 0 mm 1 m/S 673 mmHg 46%

    übermorgen, 27 September, Mittwoch

    Zeit Temperatur Niederschläge Wind Luftdruck Luftfeuchtigkeit
    00:00 +20°C° 0 mm 1 m/S 673 mmHg 48%
    01:00 +20°C° 0 mm 1 m/S 673 mmHg 49%
    02:00 +17°C° 0 mm 0 m/S 673 mmHg 50%
    03:00 +17°C° 0 mm 0 m/S 672 mmHg 52%
    04:00 +17°C° 0 mm 0 m/S 673 mmHg 52%
    05:00 +19°C° 0 mm 1 m/S 673 mmHg 53%
    06:00 +19°C° 0 mm 1 m/S 673 mmHg 54%
    07:00 +20°C° 0 mm 1 m/S 674 mmHg 49%
    08:00 +22°C° 0 mm 1 m/S 674 mmHg 45%
    09:00 +23°C° 0 mm 2 m/S 675 mmHg 40%
    10:00 +24°C° 0 mm 2 m/S 675 mmHg 38%
    11:00 +25°C° 0 mm 3 m/S 675 mmHg 36%
    12:00 +26°C° 0 mm 3 m/S 675 mmHg 33%
    13:00 +26°C° 0 mm 4 m/S 675 mmHg 33%
    14:00 +26°C° 0 mm 4 m/S 675 mmHg 32%
    15:00 +26°C° 0 mm 4 m/S 674 mmHg 31%
    16:00 +26°C° 0 mm 4 m/S 674 mmHg 34%
    17:00 +25°C° 0 mm 3 m/S 674 mmHg 37%
    18:00 +24°C° 0 mm 3 m/S 674 mmHg 40%
    19:00 +22°C° 0 mm 3 m/S 674 mmHg 47%
    20:00 +21°C° 0 mm 2 m/S 675 mmHg 53%
    21:00 +20°C° 0 mm 2 m/S 675 mmHg 59%
    22:00 +20°C° 0 mm 2 m/S 675 mmHg 62%
    23:00 +19°C° 0 mm 2 m/S 675 mmHg 66%

    28 September, Donnerstag

    Zeit Temperatur Niederschläge Wind Luftdruck Luftfeuchtigkeit
    00:00 +19°C° 0 mm 2 m/S 675 mmHg 69%
    01:00 +19°C° 0 mm 1 m/S 674 mmHg 71%
    02:00 +19°C° 0 mm 1 m/S 674 mmHg 73%
    03:00 +18°C° 0 mm 1 m/S 674 mmHg 76%
    04:00 +18°C° 0 mm 1 m/S 674 mmHg 76%
    05:00 +18°C° 0 mm 1 m/S 674 mmHg 76%
    06:00 +18°C° 0 mm 1 m/S 674 mmHg 76%
    07:00 +19°C° 0 mm 1 m/S 675 mmHg 69%
    08:00 +21°C° 0 mm 1 m/S 675 mmHg 62%
    09:00 +22°C° 0 mm 1 m/S 676 mmHg 55%
    10:00 +23°C° 0 mm 2 m/S 676 mmHg 50%
    11:00 +24°C° 0 mm 2 m/S 676 mmHg 46%
    12:00 +25°C° 0 mm 3 m/S 676 mmHg 41%
    13:00 +25°C° 0 mm 3 m/S 676 mmHg 40%
    14:00 +25°C° 0 mm 3 m/S 675 mmHg 38%
    15:00 +25°C° 0 mm 3 m/S 675 mmHg 37%
    16:00 +25°C° 0 mm 3 m/S 675 mmHg 40%
    17:00 +24°C° 0 mm 3 m/S 675 mmHg 42%
    18:00 +22°C° 0 mm 3 m/S 675 mmHg 45%
    19:00 +21°C° 0 mm 3 m/S 675 mmHg 50%
    20:00 +21°C° 0 mm 3 m/S 675 mmHg 54%
    21:00 +20°C° 0 mm 2 m/S 675 mmHg 59%
    22:00 +19°C° 0 mm 2 m/S 675 mmHg 62%
    23:00 +19°C° 0 mm 2 m/S 675 mmHg 65%

    29 September, Freitag

    Zeit Temperatur Niederschläge Wind Luftdruck Luftfeuchtigkeit
    00:00 +18°C° 0 mm 2 m/S 675 mmHg 68%
    01:00 +18°C° 0 mm 2 m/S 674 mmHg 70%
    02:00 +18°C° 0 mm 1 m/S 674 mmHg 72%
    03:00 +18°C° 0 mm 1 m/S 674 mmHg 74%
    04:00 +18°C° 0 mm 1 m/S 674 mmHg 76%
    05:00 +18°C° 0 mm 1 m/S 674 mmHg 77%
    06:00 +16°C° 0 mm 1 m/S 674 mmHg 78%
    07:00 +19°C° 0 mm 1 m/S 675 mmHg 71%
    08:00 +20°C° 0 mm 1 m/S 675 mmHg 64%
    09:00 +20°C° 0 mm 2 m/S 675 mmHg 57%
    10:00 +21°C° 0 mm 2 m/S 675 mmHg 51%
    11:00 +22°C° 0 mm 3 m/S 675 mmHg 45%
    12:00 +24°C° 0 mm 3 m/S 675 mmHg 39%
    13:00 +25°C° 0 mm 3 m/S 675 mmHg 38%
    14:00 +25°C° 0 mm 3 m/S 675 mmHg 37%
    15:00 +25°C° 0 mm 4 m/S 674 mmHg 35%
    16:00 +24°C° 0 mm 3 m/S 674 mmHg 38%
    17:00 +24°C° 0 mm 3 m/S 674 mmHg 41%
    18:00 +22°C° 0 mm 3 m/S 674 mmHg 44%
    19:00 +21°C° 0 mm 3 m/S 674 mmHg 49%
    20:00 +21°C° 0 mm 2 m/S 674 mmHg 53%
    21:00 +20°C° 0 mm 2 m/S 674 mmHg 57%
    22:00 +20°C° 0 mm 1 m/S 674 mmHg 59%
    23:00 +20°C° 0 mm 1 m/S 674 mmHg 61%

    30 September, Samstag

    Zeit Temperatur Niederschläge Wind Luftdruck Luftfeuchtigkeit
    00:00 +19°C° 0 mm 1 m/S 673 mmHg 64%
    01:00 +19°C° 0 mm 1 m/S 673 mmHg 66%
    02:00 +18°C° 0 mm 1 m/S 673 mmHg 68%
    03:00 +18°C° 0 mm 1 m/S 673 mmHg 70%
    04:00 +18°C° 0 mm 1 m/S 673 mmHg 71%
    05:00 +18°C° 0 mm 1 m/S 673 mmHg 72%
    06:00 +16°C° 0 mm 1 m/S 673 mmHg 74%
    07:00 +19°C° 0 mm 1 m/S 673 mmHg 68%
    08:00 +20°C° 0 mm 1 m/S 674 mmHg 62%
    09:00 +20°C° 0 mm 2 m/S 674 mmHg 57%
    10:00 +21°C° 0 mm 2 m/S 674 mmHg 52%
    11:00 +22°C° 0 mm 3 m/S 674 mmHg 46%
    12:00 +24°C° 0 mm 3 m/S 674 mmHg 41%
    13:00 +24°C° 0,2 mm 3 m/S 674 mmHg 39%
    14:00 +24°C° 0,2 mm 3 m/S 674 mmHg 37%
    15:00 +23°C° 0,2 mm 4 m/S 673 mmHg 35%
    16:00 +24°C° 0,1 mm 3 m/S 673 mmHg 37%
    17:00 +22°C° 0,1 mm 3 m/S 673 mmHg 38%
    18:00 +21°C° 0,1 mm 3 m/S 673 mmHg 39%
    19:00 +21°C° 0 mm 2 m/S 673 mmHg 43%
    20:00 +20°C° 0 mm 2 m/S 673 mmHg 47%
    21:00 +20°C° 0 mm 1 m/S 673 mmHg 51%
    22:00 +20°C° 0 mm 1 m/S 673 mmHg 53%
    23:00 +19°C° 0 mm 1 m/S 673 mmHg 55%
    Mehr zeigen